When you browse on this site, cookies collect data to enhance your experience and personalize the content and advertising you see.
Visit our Privacy Policy to learn more. By continuing to use the site, you agree to this use of cookies and data.
  • In United Kingdom
  • List of Countries
  • For 7 days
  • Water Temperature
  • Satellite Maps
  • Weather Map
  • Weather Widgets
  • user-avatar
    Login

    Hourly Weather Ohiivtsi

    Today, 18 April, Thursday

    Time Temperature Precipitation Wind Pressure Humidity
    00:00 +7°C° 0 mm 2 mps 742 mmHg 86%
    01:00 +7°C° 0 mm 2 mps 742 mmHg 87%
    02:00 +6°C° 0 mm 2 mps 742 mmHg 88%
    03:00 +5°C° 0 mm 2 mps 743 mmHg 89%
    04:00 +5°C° 0 mm 2 mps 743 mmHg 90%
    05:00 +4°C° 0 mm 2 mps 743 mmHg 90%
    06:00 +6°C° 0 mm 2 mps 743 mmHg 85%
    07:00 +7°C° 0 mm 2 mps 743 mmHg 80%
    08:00 +8°C° 0 mm 3 mps 744 mmHg 74%
    09:00 +9°C° 0 mm 3 mps 744 mmHg 67%
    10:00 +10°C° 0 mm 3 mps 744 mmHg 61%
    11:00 +12°C° 0 mm 4 mps 744 mmHg 55%
    12:00 +12°C° 0 mm 4 mps 744 mmHg 51%
    13:00 +13°C° 0 mm 4 mps 743 mmHg 48%
    14:00 +14°C° 0 mm 4 mps 743 mmHg 44%
    15:00 +14°C° 0 mm 3 mps 743 mmHg 44%
    16:00 +14°C° 0 mm 3 mps 742 mmHg 45%
    17:00 +14°C° 0 mm 3 mps 742 mmHg 45%
    18:00 +14°C° 0 mm 2 mps 742 mmHg 50%
    19:00 +13°C° 0 mm 2 mps 741 mmHg 55%
    20:00 +11°C° 0 mm 1 mps 741 mmHg 59%
    21:00 +10°C° 0 mm 2 mps 741 mmHg 62%
    22:00 +10°C° 0 mm 3 mps 741 mmHg 64%
    23:00 +9°C° 0 mm 3 mps 741 mmHg 67%

    Tomorrow, 19 April, Friday

    Time Temperature Precipitation Wind Pressure Humidity
    00:00 +7°C° 0 mm 4 mps 741 mmHg 69%
    01:00 +7°C° 0 mm 4 mps 740 mmHg 71%
    02:00 +6°C° 0 mm 4 mps 740 mmHg 73%
    03:00 +6°C° 0 mm 5 mps 740 mmHg 74%
    04:00 +5°C° 0 mm 5 mps 740 mmHg 74%
    05:00 +3°C° 0 mm 5 mps 740 mmHg 75%
    06:00 +5°C° 0 mm 5 mps 741 mmHg 71%
    07:00 +5°C° 0 mm 6 mps 741 mmHg 68%
    08:00 +5°C° 0 mm 7 mps 741 mmHg 64%
    09:00 +6°C° 0 mm 7 mps 742 mmHg 60%
    10:00 +8°C° 0 mm 7 mps 742 mmHg 57%
    11:00 +10°C° 0 mm 6 mps 742 mmHg 53%
    12:00 +10°C° 0 mm 6 mps 742 mmHg 51%
    13:00 +11°C° 0 mm 6 mps 743 mmHg 49%
    14:00 +13°C° 0 mm 6 mps 743 mmHg 47%
    15:00 +11°C° 0.3 mm 6 mps 743 mmHg 50%
    16:00 +12°C° 0.3 mm 5 mps 743 mmHg 53%
    17:00 +12°C° 0.3 mm 5 mps 743 mmHg 56%
    18:00 +11°C° 0.1 mm 3 mps 743 mmHg 61%
    19:00 +10°C° 0.1 mm 2 mps 743 mmHg 66%
    20:00 +10°C° 0.1 mm 1 mps 743 mmHg 72%
    21:00 +9°C° 0.1 mm 1 mps 743 mmHg 74%
    22:00 +9°C° 0.1 mm 1 mps 744 mmHg 75%
    23:00 +7°C° 0.1 mm 0 mps 744 mmHg 77%

    Day after tomorrow, 20 April, Saturday

    Time Temperature Precipitation Wind Pressure Humidity
    00:00 +7°C° 0 mm 0 mps 744 mmHg 79%
    01:00 +6°C° 0 mm 0 mps 744 mmHg 81%
    02:00 +6°C° 0 mm 0 mps 743 mmHg 83%
    03:00 +5°C° 0 mm 0 mps 743 mmHg 85%
    04:00 +5°C° 0 mm 0 mps 743 mmHg 86%
    05:00 +4°C° 0 mm 0 mps 743 mmHg 88%
    06:00 +7°C° 0 mm 1 mps 743 mmHg 83%
    07:00 +8°C° 0 mm 1 mps 743 mmHg 78%
    08:00 +9°C° 0 mm 1 mps 743 mmHg 73%
    09:00 +11°C° 0.1 mm 1 mps 743 mmHg 65%
    10:00 +12°C° 0.1 mm 2 mps 743 mmHg 58%
    11:00 +13°C° 0.1 mm 2 mps 743 mmHg 50%
    12:00 +13°C° 0.1 mm 2 mps 743 mmHg 48%
    13:00 +14°C° 0.1 mm 2 mps 742 mmHg 45%
    14:00 +14°C° 0.1 mm 2 mps 742 mmHg 43%
    15:00 +14°C° 0 mm 2 mps 742 mmHg 43%
    16:00 +14°C° 0 mm 2 mps 741 mmHg 44%
    17:00 +14°C° 0 mm 2 mps 741 mmHg 44%
    18:00 +13°C° 0 mm 2 mps 741 mmHg 48%
    19:00 +11°C° 0 mm 1 mps 741 mmHg 52%
    20:00 +10°C° 0 mm 1 mps 741 mmHg 56%
    21:00 +9°C° 0 mm 0 mps 740 mmHg 59%
    22:00 +9°C° 0 mm 0 mps 740 mmHg 62%
    23:00 +8°C° 0 mm 0 mps 740 mmHg 65%

    21 April, Sunday

    Time Temperature Precipitation Wind Pressure Humidity
    00:00 +8°C° 0.1 mm 0 mps 740 mmHg 68%
    01:00 +8°C° 0.1 mm 1 mps 739 mmHg 72%
    02:00 +8°C° 0.1 mm 1 mps 739 mmHg 76%
    03:00 +8°C° 0 mm 1 mps 739 mmHg 78%
    04:00 +7°C° 0 mm 1 mps 739 mmHg 80%
    05:00 +7°C° 0 mm 1 mps 738 mmHg 83%
    06:00 +8°C° 0.1 mm 1 mps 739 mmHg 80%
    07:00 +9°C° 0.1 mm 1 mps 739 mmHg 76%
    08:00 +10°C° 0.1 mm 1 mps 739 mmHg 73%
    09:00 +11°C° 0.6 mm 1 mps 739 mmHg 68%
    10:00 +12°C° 0.6 mm 2 mps 739 mmHg 62%
    11:00 +13°C° 0.6 mm 2 mps 739 mmHg 56%
    12:00 +14°C° 0.5 mm 2 mps 738 mmHg 55%
    13:00 +13°C° 0.5 mm 3 mps 738 mmHg 53%
    14:00 +14°C° 0.5 mm 3 mps 738 mmHg 52%
    15:00 +13°C° 0.1 mm 3 mps 738 mmHg 52%
    16:00 +13°C° 0.1 mm 3 mps 738 mmHg 52%
    17:00 +13°C° 0.1 mm 3 mps 737 mmHg 52%
    18:00 +12°C° 0.1 mm 3 mps 738 mmHg 59%
    19:00 +10°C° 0.1 mm 3 mps 738 mmHg 67%
    20:00 +9°C° 0.1 mm 3 mps 738 mmHg 74%
    21:00 +8°C° 0 mm 3 mps 738 mmHg 76%
    22:00 +8°C° 0 mm 3 mps 738 mmHg 78%
    23:00 +6°C° 0 mm 4 mps 738 mmHg 81%

    22 April, Monday

    Time Temperature Precipitation Wind Pressure Humidity
    00:00 +6°C° 0 mm 4 mps 738 mmHg 81%
    01:00 +6°C° 0 mm 4 mps 738 mmHg 81%
    02:00 +5°C° 0 mm 4 mps 738 mmHg 81%
    03:00 +5°C° 0 mm 4 mps 738 mmHg 80%
    04:00 +4°C° 0 mm 4 mps 739 mmHg 80%
    05:00 +4°C° 0 mm 4 mps 739 mmHg 79%
    06:00 +5°C° 0 mm 5 mps 739 mmHg 73%
    07:00 +7°C° 0 mm 5 mps 740 mmHg 68%
    08:00 +8°C° 0 mm 6 mps 740 mmHg 62%
    09:00 +9°C° 0 mm 7 mps 741 mmHg 57%
    10:00 +11°C° 0 mm 7 mps 741 mmHg 52%
    11:00 +12°C° 0 mm 7 mps 741 mmHg 47%
    12:00 +12°C° 0 mm 7 mps 741 mmHg 46%
    13:00 +14°C° 0 mm 7 mps 741 mmHg 45%
    14:00 +14°C° 0 mm 7 mps 741 mmHg 45%
    15:00 +14°C° 0 mm 7 mps 741 mmHg 46%
    16:00 +12°C° 0 mm 7 mps 741 mmHg 47%
    17:00 +12°C° 0 mm 7 mps 741 mmHg 48%
    18:00 +11°C° 0 mm 6 mps 741 mmHg 53%
    19:00 +9°C° 0 mm 5 mps 741 mmHg 57%
    20:00 +8°C° 0 mm 5 mps 742 mmHg 61%
    21:00 +7°C° 0 mm 5 mps 742 mmHg 62%
    22:00 +7°C° 0 mm 5 mps 742 mmHg 63%
    23:00 +6°C° 0 mm 5 mps 743 mmHg 64%

    23 April, Tuesday

    Time Temperature Precipitation Wind Pressure Humidity
    00:00 +6°C° 0 mm 4 mps 743 mmHg 65%
    01:00 +5°C° 0 mm 4 mps 743 mmHg 67%
    02:00 +5°C° 0 mm 4 mps 743 mmHg 69%
    03:00 +5°C° 0 mm 4 mps 743 mmHg 71%
    04:00 +4°C° 0 mm 4 mps 743 mmHg 72%
    05:00 +4°C° 0 mm 4 mps 743 mmHg 73%
    06:00 +6°C° 0 mm 5 mps 744 mmHg 68%
    07:00 +7°C° 0 mm 5 mps 744 mmHg 63%
    08:00 +9°C° 0 mm 6 mps 744 mmHg 58%
    09:00 +10°C° 0 mm 7 mps 744 mmHg 54%
    10:00 +11°C° 0 mm 7 mps 744 mmHg 50%
    11:00 +12°C° 0 mm 8 mps 744 mmHg 46%
    12:00 +13°C° 0 mm 8 mps 744 mmHg 46%
    13:00 +13°C° 0 mm 8 mps 744 mmHg 45%
    14:00 +15°C° 0 mm 8 mps 743 mmHg 45%
    15:00 +13°C° 0 mm 8 mps 743 mmHg 47%
    16:00 +14°C° 0 mm 7 mps 743 mmHg 49%
    17:00 +14°C° 0 mm 7 mps 742 mmHg 51%
    18:00 +11°C° 0 mm 6 mps 742 mmHg 55%
    19:00 +10°C° 0 mm 6 mps 742 mmHg 59%
    20:00 +9°C° 0 mm 5 mps 742 mmHg 63%
    21:00 +8°C° 0 mm 5 mps 742 mmHg 64%
    22:00 +8°C° 0 mm 5 mps 742 mmHg 64%
    23:00 +7°C° 0 mm 5 mps 743 mmHg 65%
    Show more